Total_Precipitation_Accumulation
0.00 0.00 0.00 0.00 0.00 0.00 0.00 0.00 0.00 0.00 0.00 0.00 0.00 0.00 0.00 0.00 0.00 0.00 0.00 0.00 0.00 0.01 0.01 0.01 0.01 0.03 0.02 0.01 0.05 0.04 0.02 0.02 0.09 0.16 0.17 0.13 0.02 0.01 0.06 0.18 0.10 0.02 0.05
0.00 0.00 0.00 0.00 0.00 0.00 0.00 0.00 0.00 0.00 0.00 0.00 0.00 0.00 0.00 0.00 0.00 0.00 0.00 0.00 0.01 0.05 0.02 0.01 0.02 0.01 0.01 0.00 0.01 0.00 0.00 0.00 0.01 0.06 0.08 0.09 0.07 0.04 0.07 0.19 0.03 0.02 0.03
0.00 0.00 0.00 0.00 0.00 0.00 0.00 0.00 0.00 0.00 0.00 0.00 0.00 0.00 0.00 0.00 0.00 0.01 0.00 0.00 0.03 0.13 0.16 0.02 0.02 0.05 0.02 0.02 0.03 0.00 0.00 0.00 0.02 0.11 0.25 0.13 0.08 0.12 0.03 0.04 0.00 0.02 0.03
0.00 0.00 0.00 0.00 0.00 0.00 0.00 0.00 0.00 0.00 0.00 0.00 0.00 0.00 0.01 0.00 0.01 0.05 0.01 0.00 0.09 0.18 0.25 0.26 0.19 0.09 0.02 0.00 0.01 0.00 0.00 0.01 0.03 0.08 0.30 0.40 0.11 0.18 0.01 0.00 0.01 0.02 0.01
0.00 0.00 0.00 0.00 0.00 0.00 0.00 0.00 0.00 0.00 0.00 0.00 0.00 0.00 0.00 0.03 0.17 0.21 0.16 0.12 0.23 0.28 0.33 0.36 0.34 0.23 0.04 0.00 0.00 0.00 0.01 0.05 0.05 0.11 0.33 0.64 0.08 0.16 0.04 0.02 0.02 0.01 0.01
0.00 0.00 0.00 0.00 0.00 0.00 0.00 0.00 0.00 0.00 0.00 0.01 0.00 0.00 0.00 0.13 0.30 0.24 0.20 0.22 0.26 0.35 0.28 0.24 0.35 0.18 0.01 0.00 0.00 0.00 0.00 0.01 0.13 0.14 0.22 0.69 0.15 0.22 0.09 0.03 0.01 0.00 0.02
0.00 0.00 0.00 0.00 0.00 0.00 0.00 0.00 0.00 0.00 0.00 0.01 0.01 0.03 0.20 0.32 0.27 0.16 0.04 0.12 0.18 0.20 0.29 0.30 0.25 0.18 0.07 0.03 0.10 0.05 0.02 0.12 0.32 0.33 0.07 0.31 0.16 0.11 0.05 0.00 0.00 0.01 0.01
0.00 0.00 0.00 0.00 0.00 0.00 0.00 0.00 0.00 0.00 0.01 0.03 0.09 0.30 0.48 0.18 0.01 0.01 0.01 0.07 0.10 0.12 0.15 0.19 0.26 0.27 0.17 0.27 0.25 0.15 0.15 0.20 0.26 0.36 0.31 0.22 0.21 0.04 0.05 0.01 0.01 0.01 0.00
0.00 0.00 0.00 0.00 0.00 0.00 0.00 0.00 0.00 0.00 0.00 0.00 0.06 0.11 0.08 0.02 0.01 0.02 0.00 0.00 0.02 0.03 0.02 0.06 0.20 0.37 0.57 0.53 0.22 0.24 0.28 0.30 0.22 0.52 0.74 0.27 0.10 0.03 0.02 0.01 0.01 0.01 0.01
0.00 0.00 0.00 0.00 0.00 0.00 0.00 0.00 0.00 0.00 0.00 0.00 0.05 0.08 0.06 0.05 0.02 0.01 0.02 0.01 0.00 0.01 0.06 0.12 0.32 0.50 0.53 0.42 0.31 0.28 0.25 0.24 0.07 0.11 0.42 0.13 0.05 0.02 0.02 0.01 0.01 0.01 0.01
0.00 0.00 0.00 0.00 0.00 0.00 0.00 0.00 0.00 0.00 0.00 0.00 0.03 0.03 0.07 0.11 0.07 0.02 0.01 0.02 0.04 0.03 0.10 0.23 0.39 0.47 0.45 0.40 0.27 0.20 0.13 0.06 0.11 0.06 0.03 0.07 0.03 0.02 0.01 0.01 0.01 0.01 0.01
0.00 0.00 0.00 0.00 0.00 0.00 0.00 0.01 0.01 0.02 0.02 0.03 0.05 0.06 0.08 0.06 0.07 0.04 0.05 0.08 0.05 0.06 0.11 0.22 0.28 0.31 0.30 0.23 0.17 0.12 0.04 0.05 0.08 0.07 0.03 0.08 0.03 0.01 0.01 0.01 0.02 0.01 0.01
0.00 0.00 0.00 0.00 0.00 0.00 0.00 0.00 0.01 0.02 0.03 0.05 0.10 0.15 0.15 0.14 0.11 0.08 0.16 0.10 0.05 0.07 0.17 0.27 0.35 0.35 0.24 0.24 0.22 0.14 0.20 0.14 0.11 0.07 0.02 0.05 0.05 0.01 0.01 0.00 0.01 0.01 0.01
0.00 0.00 0.00 0.00 0.00 0.00 0.00 0.00 0.00 0.01 0.02 0.02 0.05 0.07 0.09 0.10 0.11 0.11 0.11 0.16 0.07 0.10 0.16 0.25 0.27 0.26 0.30 0.34 0.28 0.23 0.17 0.15 0.13 0.06 0.03 0.04 0.05 0.01 0.01 0.01 0.02 0.02 0.02
0.00 0.00 0.00 0.00 0.00 0.00 0.00 0.00 0.00 0.00 0.01 0.01 0.02 0.02 0.05 0.08 0.05 0.08 0.09 0.11 0.12 0.24 0.19 0.11 0.29 0.27 0.33 0.35 0.35 0.30 0.13 0.20 0.10 0.07 0.05 0.03 0.03 0.01 0.01 0.03 0.03 0.02 0.03
0.00 0.00 0.00 0.00 0.00 0.00 0.00 0.00 0.00 0.00 0.01 0.01 0.01 0.01 0.02 0.05 0.07 0.09 0.09 0.05 0.14 0.18 0.26 0.23 0.16 0.34 0.36 0.48 0.32 0.25 0.20 0.23 0.07 0.04 0.02 0.02 0.02 0.01 0.02 0.03 0.04 0.03 0.02
0.00 0.00 0.00 0.00 0.00 0.00 0.00 0.00 0.00 0.00 0.01 0.01 0.00 0.01 0.01 0.02 0.06 0.08 0.06 0.05 0.11 0.23 0.18 0.43 0.39 0.36 0.46 0.73 0.43 0.29 0.18 0.24 0.11 0.02 0.00 0.01 0.02 0.01 0.02 0.03 0.04 0.02 0.02
0.00 0.00 0.00 0.00 0.00 0.00 0.00 0.00 0.00 0.00 0.00 0.01 0.01 0.01 0.01 0.01 0.05 0.10 0.08 0.06 0.11 0.28 0.19 0.27 0.54 0.42 0.44 0.65 0.64 0.35 0.28 0.23 0.25 0.03 0.00 0.00 0.01 0.01 0.02 0.03 0.04 0.02 0.02
0.00 0.00 0.00 0.00 0.00 0.00 0.00 0.00 0.00 0.00 0.00 0.00 0.00 0.01 0.01 0.01 0.04 0.07 0.06 0.04 0.11 0.16 0.23 0.29 0.43 0.53 0.40 0.51 0.67 0.50 0.36 0.26 0.19 0.02 0.00 0.00 0.00 0.01 0.01 0.02 0.03 0.02 0.02
0.00 0.00 0.00 0.00 0.00 0.00 0.00 0.00 0.00 0.00 0.00 0.00 0.00 0.01 0.01 0.01 0.03 0.08 0.07 0.03 0.09 0.23 0.29 0.40 0.54 0.57 0.51 0.42 0.59 0.65 0.36 0.36 0.17 0.01 0.00 0.00 0.00 0.00 0.00 0.02 0.01 0.01 0.01
0.00 0.00 0.00 0.00 0.00 0.00 0.00 0.00 0.00 0.00 0.00 0.00 0.00 0.00 0.01 0.01 0.03 0.06 0.08 0.02 0.01 0.08 0.28 0.37 0.71 0.79 0.71 0.51 0.77 0.86 0.69 0.34 0.23 0.03 0.01 0.00 0.00 0.00 0.00 0.02 0.01 0.00 0.00
0.00 0.00 0.00 0.00 0.00 0.00 0.00 0.00 0.00 0.00 0.00 0.00 0.00 0.01 0.03 0.04 0.05 0.08 0.05 0.02 0.01 0.01 0.09 0.27 0.58 1.02 0.89 0.58 0.63 0.69 0.51 0.29 0.13 0.03 0.01 0.00 0.00 0.00 0.00 0.01 0.01 0.00 0.00
0.00 0.00 0.00 0.00 0.00 0.00 0.00 0.00 0.00 0.00 0.00 0.00 0.01 0.00 0.01 0.03 0.07 0.10 0.12 0.03 0.07 0.03 0.02 0.06 0.22 0.66 0.66 0.63 0.37 0.43 0.15 0.12 0.06 0.04 0.02 0.00 0.01 0.00 0.00 0.00 0.00 0.00 0.00
0.00 0.00 0.00 0.00 0.00 0.00 0.00 0.00 0.00 0.00 0.00 0.00 0.00 0.00 0.00 0.01 0.03 0.10 0.10 0.11 0.08 0.19 0.07 0.02 0.03 0.26 0.50 0.47 0.48 0.40 0.06 0.01 0.02 0.03 0.03 0.00 0.01 0.01 0.00 0.00 0.00 0.00 0.00
0.00 0.00 0.00 0.02 0.03 0.00 0.00 0.00 0.00 0.00 0.00 0.00 0.00 0.00 0.00 0.01 0.01 0.05 0.11 0.10 0.06 0.08 0.10 0.09 0.04 0.07 0.24 0.31 0.35 0.27 0.16 0.08 0.06 0.03 0.03 0.02 0.01 0.00 0.00 0.00 0.00 0.00 0.00
0.00 0.00 0.00 0.00 0.03 0.05 0.01 0.00 0.00 0.00 0.00 0.00 0.00 0.00 0.00 0.00 0.01 0.02 0.06 0.09 0.06 0.04 0.10 0.13 0.06 0.07 0.05 0.14 0.29 0.20 0.15 0.12 0.08 0.05 0.05 0.05 0.02 0.00 0.00 0.00 0.00 0.00 0.00